FW6193 Weather Reports


time (UTC)temp
C
wind
direction
speed
KPH
gust
KPH
rain 1hr
cm
rain 24hr
cm
rain mn
cm
humidity
%
barometer
mb
20260504151015 18 0 0.0 6.4 0.00 0.00 0.00 48 1013.6
20260504150511 18 0 0.0 6.4 0.00 0.00 0.00 45 1013.6
20260504141014 16 0 0.0 3.2 0.00 0.00 0.00 57 1013.6
20260504140510 16 0 0.0 0.0 0.00 0.00 0.00 59 1013.6
20260504130520 12 0 0.0 4.8 0.00 0.00 0.00 69 1014.0
20260504110512 5 0 0.0 0.0 0.00 0.00 0.00 82 1014.5
20260504100515 4 0 0.0 3.2 0.00 0.00 0.00 80 1014.4
20260504060141 4 0 0.0 0.0 0.00 0.00 0.00 73 1014.3
20260504045511 5 0 0.0 0.0 0.00 0.00 0.00 73 1014.5
20260504045332 5 0 0.0 0.0 0.00 0.00 0.00 72 1014.4
20260504044541 5 0 0.0 0.0 0.00 0.00 0.00 72 1014.5
20260504044014 5 0 0.0 0.0 0.00 0.00 0.00 72 1014.5
20260504043517 5 0 0.0 0.0 0.00 0.00 0.00 72 1014.4
20260504043034 5 0 0.0 0.0 0.00 0.00 0.00 70 1014.4
20260504042513 5 0 0.0 0.0 0.00 0.00 0.00 71 1014.3
20260504042009 5 0 0.0 0.0 0.00 0.00 0.00 71 1014.2
20260504041529 5 0 0.0 0.0 0.00 0.00 0.00 70 1014.1
20260504041334 5 0 0.0 0.0 0.00 0.00 0.00 70 1014.2
20260504040732 5 0 0.0 0.0 0.00 0.00 0.00 70 1014.1
20260504040038 5 0 0.0 0.0 0.00 0.00 0.00 70 1014.1
20260504035843 5 0 0.0 0.0 0.00 0.00 0.00 69 1014.1
20260504035351 6 0 0.0 0.0 0.00 0.00 0.00 69 1014.1
20260504034539 6 0 0.0 0.0 0.00 0.00 0.00 69 1014.1
20260504034013 6 0 0.0 0.0 0.00 0.00 0.00 69 1014.2
20260504033517 6 0 0.0 0.0 0.00 0.00 0.00 67 1014.1
20260504033205 6 0 0.0 0.0 0.00 0.00 0.00 68 1014.0
20260504032610 6 0 0.0 0.0 0.00 0.00 0.00 67 1014.0
20260504032122 6 0 0.0 0.0 0.00 0.00 0.00 67 1013.8
20260504031534 6 0 0.0 0.0 0.00 0.00 0.00 67 1014.0
20260504031022 6 0 0.0 0.0 0.00 0.00 0.00 67 1014.0
20260504030555 6 0 0.0 3.2 0.00 0.00 0.00 66 1013.9
20260504030116 6 0 0.0 3.2 0.00 0.00 0.00 65 1013.8
20260504025514 6 0 0.0 1.6 0.00 0.00 0.00 66 1013.9
20260504025431 6 0 0.0 0.0 0.00 0.00 0.00 65 1013.8
20260504024557 6 0 0.0 0.0 0.00 0.00 0.00 64 1014.0
20260504024109 6 0 0.0 3.2 0.00 0.00 0.00 64 1014.0
20260504023727 6 0 0.0 3.2 0.00 0.00 0.00 64 1013.9
20260504023030 7 0 0.0 3.2 0.00 0.00 0.00 64 1013.9
20260504022514 7 0 0.0 0.0 0.00 0.00 0.00 64 1013.9
20260504022010 7 0 0.0 0.0 0.00 0.00 0.00 64 1014.0
20260504021533 7 0 0.0 3.2 0.00 0.00 0.00 63 1014.0
20260504021010 7 0 0.0 3.2 0.00 0.00 0.00 63 1013.9
20260504020510 7 0 0.0 0.0 0.00 0.00 0.00 62 1013.9
20260504020028 7 0 0.0 0.0 0.00 0.00 0.00 61 1014.0
20260504015510 7 0 0.0 0.0 0.00 0.00 0.00 61 1013.8
20260504015012 7 0 0.0 0.0 0.00 0.00 0.00 61 1013.8
20260504014530 7 0 0.0 0.0 0.00 0.00 0.00 60 1013.8
20260504014011 8 0 0.0 0.0 0.00 0.00 0.00 59 1013.7
20260504013511 8 0 0.0 0.0 0.00 0.00 0.00 59 1013.7
20260504013037 8 0 0.0 0.0 0.00 0.00 0.00 59 1013.7
20260504012511 8 0 0.0 0.0 0.00 0.00 0.00 57 1013.7
20260504012012 8 0 0.0 0.0 0.00 0.00 0.00 58 1013.7
20260504011528 8 0 0.0 0.0 0.00 0.00 0.00 57 1013.5
20260504011011 8 0 0.0 0.0 0.00 0.00 0.00 56 1013.4
20260504010509 8 0 0.0 0.0 0.00 0.00 0.00 56 1013.4
20260504010035 9 0 0.0 0.0 0.00 0.00 0.00 55 1013.3
20260504005514 9 0 0.0 0.0 0.00 0.00 0.00 54 1013.2
20260504005011 9 0 0.0 0.0 0.00 0.00 0.00 53 1013.2
20260504004531 10 0 0.0 0.0 0.00 0.00 0.00 53 1013.1
20260504004015 10 0 0.0 0.0 0.00 0.00 0.00 53 1013.1
20260504003513 10 0 0.0 0.0 0.00 0.00 0.00 53 1013.1
20260504003030 10 0 0.0 0.0 0.00 0.00 0.00 51 1013.0
20260504002511 10 0 0.0 0.0 0.00 0.00 0.00 50 1012.8
20260504002013 11 0 0.0 0.0 0.00 0.00 0.00 51 1012.7
20260504001532 11 0 0.0 0.0 0.00 0.00 0.00 49 1012.7
20260504001016 11 0 0.0 1.6 0.00 0.00 0.00 48 1012.7
20260504000515 11 0 0.0 6.4 0.00 0.00 0.00 48 1012.7
20260504000031 11 0 0.0 6.4 0.00 0.00 0.00 47 1012.6
20260503235514 12 0 0.0 6.4 0.00 0.00 0.00 46 1012.5
20260503235011 12 0 0.0 1.6 0.00 0.00 0.00 46 1012.5
20260503234534 12 0 0.0 1.6 0.00 0.00 0.00 46 1012.5
20260503234144 12 0 0.0 6.4 0.00 0.00 0.00 44 1012.3
20260503233514 12 0 0.0 6.4 0.00 0.00 0.00 44 1012.4
20260503233042 12 257 0.0 6.4 0.00 0.00 0.00 44 1012.4
20260503232514 12 257 0.0 6.4 0.00 0.00 0.00 44 1012.6
20260503232020 12 0 0.0 4.8 0.00 0.00 0.00 43 1012.5
20260503231530 12 0 0.0 4.8 0.00 0.00 0.00 43 1012.4
20260503231014 13 257 0.0 6.4 0.00 0.00 0.00 44 1012.3
20260503230514 13 0 0.0 6.4 0.00 0.00 0.00 41 1012.3
20260503230030 13 256 0.0 4.8 0.00 0.00 0.00 42 1012.2
20260503225512 13 266 0.0 6.4 0.00 0.00 0.00 42 1012.3
20260503225011 13 327 0.0 11.3 0.00 0.00 0.00 42 1012.3
20260503224531 13 0 1.6 16.1 0.00 0.00 0.00 40 1012.3
20260503224020 13 0 3.2 16.1 0.00 0.00 0.00 39 1012.3
20260503223513 13 0 0.0 6.4 0.00 0.00 0.00 40 1012.2
20260503223027 13 294 0.0 6.4 0.00 0.00 0.00 42 1012.2
20260503222511 13 0 0.0 6.4 0.00 0.00 0.00 41 1012.3
20260503222009 13 0 0.0 9.7 0.00 0.00 0.00 40 1012.4
20260503221538 13 0 0.0 9.7 0.00 0.00 0.00 40 1012.2
20260503221011 13 0 0.0 4.8 0.00 0.00 0.00 39 1012.3
20260503220511 13 0 0.0 12.9 0.00 0.00 0.00 39 1012.2
20260503220035 13 0 0.0 12.9 0.00 0.00 0.00 39 1012.3
20260503215513 13 9 1.6 12.9 0.00 0.00 0.00 39 1012.3
20260503215013 13 0 1.6 8.0 0.00 0.00 0.00 39 1012.3
20260503214529 13 203 0.0 8.0 0.00 0.00 0.00 40 1012.3
20260503214058 13 221 0.0 11.3 0.00 0.00 0.00 40 1012.3
20260503213514 13 114 1.6 16.1 0.00 0.00 0.00 38 1012.2
20260503213038 13 0 0.0 16.1 0.00 0.00 0.00 39 1012.2
20260503212513 13 0 1.6 16.1 0.00 0.00 0.00 37 1012.4
20260503212012 13 0 0.0 9.7 0.00 0.00 0.00 37 1012.4
20260503211533 13 313 1.6 14.5 0.00 0.00 0.00 36 1012.4
20260503211014 13 36 3.2 17.7 0.00 0.00 0.00 38 1012.3
20260503210509 13 0 1.6 17.7 0.00 0.00 0.00 36 1012.3
20260503210030 13 0 0.0 12.9 0.00 0.00 0.00 40 1012.4
20260503205510 13 223 3.2 12.9 0.00 0.00 0.00 38 1012.3
20260503205143 13 326 1.6 24.1 0.00 0.00 0.00 37 1012.4
20260503205027 13 326 1.6 24.1 0.00 0.00 0.00 37 1012.4
20260503204530 13 0 1.6 24.1 0.00 0.00 0.00 38 1012.4
20260503204012 13 196 4.8 24.1 0.00 0.00 0.00 37 1012.4
20260503203514 14 0 1.6 12.9 0.00 0.00 0.00 35 1012.5
20260503203029 15 0 0.0 22.5 0.00 0.00 0.00 35 1012.5
20260503202518 15 0 0.0 22.5 0.00 0.00 0.00 37 1012.5
20260503202012 15 53 1.6 22.5 0.00 0.00 0.00 36 1012.6
20260503201531 15 0 0.0 17.7 0.00 0.00 0.00 37 1012.7
20260503201013 15 0 3.2 17.7 0.00 0.00 0.00 35 1012.7
20260503200512 15 0 0.0 11.3 0.00 0.00 0.00 37 1012.7
20260503200116 15 259 0.0 11.3 0.00 0.00 0.00 36 1012.7
20260503195511 16 252 0.0 9.7 0.00 0.00 0.00 37 1012.8
20260503195012 15 167 0.0 17.7 0.00 0.00 0.00 37 1012.7
20260503194532 15 0 0.0 17.7 0.00 0.00 0.00 39 1012.8
20260503194013 15 0 1.6 19.3 0.00 0.00 0.00 36 1012.8
20260503193513 15 338 1.6 19.3 0.00 0.00 0.00 36 1012.8
20260503193036 15 0 3.2 19.3 0.00 0.00 0.00 36 1012.8
20260503192515 15 0 0.0 8.0 0.00 0.00 0.00 34 1012.7
20260503192020 16 0 0.0 8.0 0.00 0.00 0.00 36 1012.9
20260503191536 15 221 0.0 14.5 0.00 0.00 0.00 36 1012.9
20260503191020 15 209 1.6 14.5 0.00 0.00 0.00 36 1012.8
20260503190512 15 205 1.6 19.3 0.00 0.00 0.00 36 1013.0
20260503190029 16 0 3.2 19.3 0.00 0.00 0.00 34 1013.0
20260503185510 16 0 0.0 12.9 0.00 0.00 0.00 39 1012.9
20260503185013 15 5 0.0 12.9 0.00 0.00 0.00 39 1013.0
20260503184529 15 24 1.6 12.9 0.00 0.00 0.00 37 1013.0
20260503184012 14 0 0.0 12.9 0.00 0.00 0.00 37 1013.2
20260503183520 15 0 1.6 12.9 0.00 0.00 0.00 36 1013.1
20260503183037 15 225 1.6 19.3 0.00 0.00 0.00 36 1013.3
20260503182515 15 0 0.0 19.3 0.00 0.00 0.00 38 1013.3
20260503182016 15 161 1.6 19.3 0.00 0.00 0.00 38 1013.4
20260503181624 14 0 3.2 25.7 0.00 0.00 0.00 40 1013.4
20260503181011 14 0 3.2 25.7 0.00 0.00 0.00 36 1013.3
20260503180511 14 0 4.8 25.7 0.00 0.00 0.00 35 1013.3
20260503180032 15 229 0.0 11.3 0.00 0.00 0.00 41 1013.2
20260503175513 13 158 0.0 16.1 0.00 0.00 0.00 38 1013.3
20260503175013 14 0 3.2 16.1 0.00 0.00 0.00 37 1013.4
20260503174557 14 0 1.6 19.3 0.00 0.00 0.00 36 1013.4
20260503174029 15 160 3.2 19.3 0.00 0.00 0.00 34 1013.5
20260503173516 15 218 3.2 16.1 0.00 0.00 0.00 36 1013.5
20260503173044 14 0 0.0 14.5 0.00 0.00 0.00 40 1013.6
20260503172821 14 0 1.6 14.5 0.00 0.00 0.00 42 1013.5
20260503172719 14 0 1.6 14.5 0.00 0.00 0.00 42 1013.5
20260503172010 13 0 3.2 16.1 0.00 0.00 0.00 38 1013.6
20260503171528 13 0 1.6 20.9 0.00 0.00 0.00 39 1013.6
20260503171010 14 0 1.6 20.9 0.00 0.00 0.00 36 1013.5
20260503170615 14 204 1.6 20.9 0.00 0.00 0.00 37 1013.8
20260503170143 13 0 3.2 20.9 0.00 0.00 0.00 44 1013.6